Latest Weather Observations for Cleve Airport

IDS60801

Issued at 2:01 pm CDT Wednesday 22 February 2017 (issued every 30 minutes, with the page automatically refreshed every 10 minutes)

About weather observations | Map of weather stations | Latest weather observations for SA | Other Formats
Station Details ID: 018116 Name: CLEVE AERODROME Lat: -33.71 Lon: 136.50 Height: 175.0 m
Data from the previous 72 hours. | See also: Recent months at Cleve Airport
Date/Time
CDT
Temp
°C
App
Temp
°C
Dew
Point
°C
Rel
Hum
%
Delta-T
°C
Wind Press
QNH
hPa
Press
MSL
hPa
Rain since
9am
mm
Dir  Spd
km/h
Gust
km/h
Spd
kts
Gust
kts
22/02:00pm 24.9 17.3 5.7 29 9.9 W 35 54 19 29 1012.1 1011.3 0.0
22/01:38pm 24.8 17.0 5.1 28 10.0 W 35 54 19 29 1011.9 1011.2 0.0
22/01:30pm 25.3 18.4 6.5 30 9.8 WNW 32 46 17 25 1011.9 1011.2 0.0
22/01:04pm 23.9 16.1 4.8 29 9.6 W 35 54 19 29 1011.9 1011.2 0.0
22/01:00pm 24.4 16.3 5.2 29 9.8 W 37 46 20 25 1011.9 1011.2 0.0
22/12:32pm 24.5 17.7 6.7 32 9.3 WNW 32 50 17 27 1011.8 1011.1 0.0
22/12:30pm 24.7 17.6 6.4 31 9.5 WNW 33 50 18 27 1011.9 1011.2 0.0
22/12:00pm 24.5 17.6 7.2 33 9.1 W 33 56 18 30 1011.9 1011.2 0.0
22/11:53am 23.5 16.6 6.3 33 8.9 W 32 56 17 30 1012.1 1011.3 0.0
22/11:30am 23.2 17.1 8.1 38 8.0 WNW 30 44 16 24 1011.9 1011.2 0.0
22/11:00am 23.5 17.6 7.6 36 8.4 WNW 28 39 15 21 1011.6 1010.9 0.0
22/10:30am 23.0 16.9 6.7 35 8.5 W 28 37 15 20 1011.8 1011.1 0.0
22/10:00am 21.3 14.2 6.4 38 7.6 W 33 48 18 26 1011.9 1011.2 0.0
22/09:30am 21.3 15.2 11.9 55 5.3 W 35 43 19 23 1012.1 1011.3 0.0
22/09:05am 20.3 14.5 11.5 57 4.9 W 33 56 18 30 1011.9 1011.2 0.0
22/09:00am 20.3 15.1 12.8 62 4.3 W 32 44 17 24 1011.8 1011.1 0.0
22/08:30am 19.6 13.4 13.8 69 3.4 W 39 54 21 29 1011.3 1010.6 0.0
22/08:00am 20.3 13.6 13.5 65 3.9 W 41 59 22 32 1010.2 1009.5 0.0
22/07:47am 23.7 15.6 0.7 22 10.7 WNW 33 54 18 29 1009.4 1008.7 0.0
22/07:30am 24.0 15.0 0.4 21 11.0 NW 37 52 20 28 1008.5 1007.7 0.0
22/07:00am 24.4 15.9 0.7 21 11.1 NW 35 50 19 27 1007.6 1006.8 0.0
22/06:30am 23.8 13.9 1.4 23 10.6 NNW 43 61 23 33 1006.4 1005.6 0.0
22/06:00am 24.1 12.8 1.1 22 10.9 N 50 72 27 39 1005.2 1004.5 0.0
22/05:34am 24.6 13.2 0.8 21 11.2 N 50 69 27 37 1004.9 1004.2 0.0
22/05:30am 24.5 13.2 1.4 22 11.0 N 50 63 27 34 1004.9 1004.2 0.0
22/05:18am 24.5 13.2 1.4 22 11.0 N 50 69 27 37 1004.9 1004.2 0.0
22/05:00am 24.4 13.2 1.9 23 10.8 N 50 65 27 35 1004.9 1004.2 0.0
22/04:42am 24.7 13.6 2.2 23 10.9 N 50 69 27 37 1005.0 1004.3 0.0
22/04:30am 24.6 13.4 2.1 23 10.9 N 50 63 27 34 1005.1 1004.4 0.0
22/04:04am 24.9 14.6 2.4 23 10.9 N 46 69 25 37 1005.2 1004.5 0.0
22/04:00am 24.8 14.4 2.3 23 10.9 N 46 61 25 33 1005.3 1004.6 0.0
22/03:30am 24.5 14.6 2.6 24 10.7 N 44 63 24 34 1005.6 1004.9 0.0
22/03:00am 24.7 16.5 2.8 24 10.7 N 35 50 19 27 1007.1 1006.3 0.0
22/02:30am 24.8 16.5 2.3 23 10.9 N 35 46 19 25 1007.6 1006.8 0.0
22/02:00am 24.7 16.0 2.2 23 10.9 N 37 50 20 27 1007.7 1006.9 0.0
22/01:30am 25.0 16.0 2.4 23 11.0 N 39 50 21 27 1008.4 1007.6 0.0
22/01:00am 24.6 16.3 2.1 23 10.8 N 35 44 19 24 1008.9 1008.1 0.0
22/12:30am 24.2 17.7 2.4 24 10.5 N 26 35 14 19 1009.6 1008.9 0.0
22/12:00am 24.6 18.6 3.3 25 10.5 N 24 35 13 19 1010.0 1009.3 0.0
 
Date/Time
CDT
Temp
°C
App
Temp
°C
Dew
Point
°C
Rel
Hum
%
Delta-T
°C
Wind Press
QNH
hPa
Press
MSL
hPa
Rain since
9am
mm
Dir  Spd
km/h
Gust
km/h
Spd
kts
Gust
kts
21/11:30pm 24.6 18.7 3.8 26 10.3 N 24 30 13 16 1010.4 1009.7 0.0
21/11:00pm 25.5 20.3 3.5 24 10.9 N 20 30 11 16 1010.7 1010.0 0.0
21/10:30pm 25.3 19.4 3.9 25 10.7 N 24 28 13 15 1011.0 1010.3 0.0
21/10:00pm 25.1 20.6 4.3 26 10.5 N 17 20 9 11 1011.1 1010.4 0.0
21/09:30pm 26.5 21.3 3.7 23 11.5 N 20 24 11 13 1010.9 1010.2 0.0
21/09:00pm 27.2 22.1 4.3 23 11.7 N 20 30 11 16 1010.9 1010.2 0.0
21/08:30pm 27.8 23.8 4.8 23 11.9 NNW 15 20 8 11 1010.6 1009.9 0.0
21/08:00pm 28.6 24.4 5.5 23 12.1 N 17 22 9 12 1010.1 1009.4 0.0
21/07:30pm 30.1 24.4 4.7 20 13.3 N 24 32 13 17 1010.0 1009.3 0.0
21/07:00pm 30.9 25.7 5.3 20 13.6 NNW 22 32 12 17 1009.8 1009.1 0.0
21/06:30pm 31.9 26.7 5.4 19 14.2 N 22 32 12 17 1009.8 1009.1 0.0
21/06:00pm 32.1 26.9 5.6 19 14.2 NNW 22 32 12 17 1010.0 1009.3 0.0
21/05:30pm 31.8 26.9 5.3 19 14.1 N 20 33 11 18 1010.2 1009.5 0.0
21/05:00pm 31.5 25.7 4.3 18 14.2 N 24 39 13 21 1010.6 1009.9 0.0
21/04:30pm 31.2 25.5 4.9 19 13.9 NNW 24 37 13 20 1011.2 1010.5 0.0
21/04:00pm 31.5 25.8 5.1 19 14.0 N 24 35 13 19 1011.5 1010.8 0.0
21/03:30pm 31.4 25.9 4.2 18 14.2 N 22 35 12 19 1012.1 1011.3 0.0
21/03:00pm 30.5 25.2 5.0 20 13.4 N 22 37 12 20 1012.8 1012.0 0.0
21/02:30pm 30.8 25.0 4.5 19 13.7 N 24 37 13 20 1013.3 1012.5 0.0
21/02:00pm 29.8 24.7 5.8 22 12.7 N 22 32 12 17 1013.8 1013.0 0.0
21/01:30pm 29.3 24.1 5.4 22 12.6 N 22 30 12 16 1014.4 1013.7 0.0
21/01:00pm 28.1 22.5 5.6 24 11.8 N 24 30 13 16 1015.0 1014.3 0.0
21/12:30pm 27.9 23.2 6.1 25 11.5 N 20 32 11 17 1015.5 1014.8 0.0
21/12:00pm 27.1 21.7 6.5 27 10.9 N 24 32 13 17 1016.0 1015.3 0.0
21/11:30am 27.5 21.8 6.8 27 11.0 N 26 35 14 19 1016.3 1015.6 0.0
21/11:00am 25.8 19.4 6.9 30 10.0 N 30 43 16 23 1016.6 1015.9 0.0
21/10:30am 24.7 17.9 6.9 32 9.3 N 32 41 17 22 1016.7 1016.0 0.0
21/10:00am 23.4 17.3 8.3 38 8.1 N 30 41 16 22 1017.2 1016.5 0.0
21/09:30am 21.5 15.0 8.1 42 7.0 N 32 43 17 23 1017.3 1016.6 0.0
21/09:00am 21.4 16.2 8.7 44 6.8 NNE 26 32 14 17 1017.3 1016.6 0.0
21/08:30am 19.2 14.5 9.1 52 5.3 NNE 24 30 13 16 1017.1 1016.4 0.0
21/08:00am 16.9 13.5 9.3 61 4.0 NNE 17 24 9 13 1016.9 1016.2 0.0
21/07:30am 15.2 13.8 9.6 69 2.9 E 7 11 4 6 1016.7 1016.0 0.0
21/07:00am 14.9 12.3 9.3 69 2.9 ENE 13 19 7 10 1016.3 1015.6 0.0
21/06:30am 14.7 11.4 9.5 71 2.7 ENE 17 20 9 11 1016.3 1015.6 0.0
21/06:00am 14.8 11.8 10.6 76 2.2 NE 17 22 9 12 1016.3 1015.6 0.0
21/05:30am 13.9 11.0 11.1 83 1.5 NE 17 19 9 10 1016.0 1015.3 0.0
21/05:00am 13.5 11.5 11.6 88 1.0 NE 13 17 7 9 1016.4 1015.7 0.0
21/04:30am 12.9 10.3 10.6 86 1.2 ENE 15 17 8 9 1016.6 1015.9 0.0
21/04:00am 13.6 10.6 10.8 83 1.5 ENE 17 19 9 10 1016.8 1016.1 0.0
21/03:30am 13.1 10.5 10.6 85 1.3 NE 15 17 8 9 1016.9 1016.2 0.0
21/03:00am 12.7 10.3 10.2 85 1.3 ENE 13 15 7 8 1017.1 1016.4 0.0
21/02:30am 13.9 11.0 10.9 82 1.6 ENE 17 19 9 10 1017.3 1016.6 0.0
21/02:00am 14.2 11.4 11.2 82 1.6 ENE 17 20 9 11 1017.3 1016.6 0.0
21/01:30am 14.6 11.4 11.4 81 1.7 ENE 19 22 10 12 1017.6 1016.9 0.0
21/01:00am 14.7 11.5 11.1 79 1.9 ENE 19 22 10 12 1017.7 1017.0 0.0
21/12:30am 14.8 12.0 11.2 79 1.9 ENE 17 20 9 11 1018.1 1017.3 0.0
21/12:00am 13.4 11.0 10.2 81 1.7 ENE 13 15 7 8 1018.5 1017.7 0.0
 
Date/Time
CDT
Temp
°C
App
Temp
°C
Dew
Point
°C
Rel
Hum
%
Delta-T
°C
Wind Press
QNH
hPa
Press
MSL
hPa
Rain since
9am
mm
Dir  Spd
km/h
Gust
km/h
Spd
kts
Gust
kts
20/11:30pm 13.7 11.6 9.9 78 2.0 ENE 11 11 6 6 1018.7 1017.9 0.0
20/11:00pm 13.6 11.5 9.8 78 2.0 ENE 11 13 6 7 1018.6 1017.8 0.0
20/10:30pm 13.7 11.2 9.7 77 2.1 E 13 15 7 8 1018.6 1017.8 0.0
20/10:00pm 13.9 12.1 9.5 75 2.3 E 9 11 5 6 1018.7 1017.9 0.0
20/09:30pm 14.7 12.2 9.7 72 2.6 E 13 13 7 7 1018.5 1017.7 0.0
20/09:00pm 15.9 13.5 10.0 68 3.1 ESE 13 17 7 9 1018.2 1017.4 0.0
20/08:30pm 16.6 13.7 9.8 64 3.6 ESE 15 19 8 10 1017.9 1017.2 0.0
20/08:00pm 17.5 13.7 9.9 61 4.0 ESE 20 26 11 14 1017.6 1016.9 0.0
20/07:30pm 18.1 13.9 9.7 58 4.5 ESE 22 30 12 16 1017.4 1016.7 0.0
20/07:00pm 18.8 14.7 10.1 57 4.7 SE 22 28 12 15 1017.3 1016.6 0.0
20/06:30pm 19.5 15.5 10.5 56 4.9 ESE 22 30 12 16 1016.9 1016.2 0.0
20/06:00pm 20.1 16.8 10.8 55 5.1 SE 19 28 10 15 1016.8 1016.1 0.0
20/05:30pm 19.5 15.1 10.5 56 4.9 SE 24 32 13 17 1016.7 1016.0 0.0
20/05:00pm 20.1 16.4 10.2 53 5.4 SE 20 28 11 15 1016.6 1015.9 0.0
20/04:30pm 20.5 16.8 10.3 52 5.6 ESE 20 30 11 16 1016.8 1016.1 0.0
20/04:00pm 19.8 15.5 10.8 56 4.9 SE 24 33 13 18 1017.0 1016.3 0.0
20/03:30pm 20.8 17.1 10.3 51 5.7 SE 20 32 11 17 1017.1 1016.4 0.0
20/03:00pm 20.3 17.4 11.0 55 5.1 ESE 17 30 9 16 1017.3 1016.6 0.0
20/02:30pm 18.8 15.9 11.1 61 4.2 SE 17 22 9 12 1017.6 1016.9 0.0
20/02:00pm 18.3 15.1 11.4 64 3.8 SE 19 28 10 15 1017.8 1017.1 0.0
20/01:30pm 19.7 17.6 11.2 58 4.7 SE 13 22 7 12 1017.8 1017.1 0.0
20/01:00pm 18.0 15.9 11.3 65 3.7 ESE 13 22 7 12 1018.4 1017.6 0.0
20/12:30pm 17.7 14.6 11.5 67 3.4 ESE 19 24 10 13 1018.6 1017.8 0.0
20/12:00pm 17.7 14.8 12.4 71 3.0 SSE 19 26 10 14 1018.8 1018.0 0.0
20/11:30am 17.3 15.4 10.4 64 3.7 S 11 17 6 9 1019.0 1018.2 0.0
20/11:00am 17.0 15.5 10.4 65 3.5 SE 9 13 5 7 1019.2 1018.5 0.0
20/10:30am 16.3 14.7 10.2 67 3.2 S 9 17 5 9 1019.3 1018.6 0.0
20/10:00am 16.5 15.4 10.6 68 3.2 WSW 7 13 4 7 1019.4 1018.7 0.0
20/09:30am 15.2 14.1 10.6 74 2.4 SW 7 11 4 6 1019.4 1018.7 0.0
20/09:00am 15.0 13.2 11.0 77 2.1 SSW 11 15 6 8 1019.3 1018.6 0.0
20/08:30am 14.7 12.4 10.5 76 2.2 SSW 13 19 7 10 1019.3 1018.6 0.0
20/08:00am 14.5 12.1 8.7 68 3.0 WSW 11 15 6 8 1019.1 1018.4 0.0
20/07:30am 14.3 12.3 8.7 69 2.8 WNW 9 11 5 6 1018.7 1017.9 0.0
20/07:00am 14.2 12.2 8.6 69 2.8 SW 9 13 5 7 1018.4 1017.6 0.0
20/06:30am 14.2 12.1 8.4 68 2.9 SW 9 13 5 7 1017.9 1017.2 0.0
20/06:00am 14.3 11.5 8.5 68 2.9 WSW 13 17 7 9 1017.5 1016.8 0.0
20/05:30am 14.3 11.1 8.3 67 3.0 W 15 19 8 10 1017.4 1016.7 0.0
20/05:00am 14.5 11.6 8.2 66 3.2 W 13 17 7 9 1017.4 1016.7 0.0
20/04:30am 14.5 11.9 7.8 64 3.4 W 11 15 6 8 1017.4 1016.7 0.0
20/04:00am 14.6 11.6 7.9 64 3.4 WSW 13 17 7 9 1017.3 1016.6 0.0
20/03:30am 14.5 10.8 8.0 65 3.3 SSW 17 24 9 13 1017.5 1016.8 0.0
20/03:00am 14.7 10.9 7.7 63 3.5 SSW 17 20 9 11 1017.4 1016.7 0.0
20/02:30am 14.6 11.3 7.9 64 3.4 SSW 15 22 8 12 1017.6 1016.9 0.0
20/02:00am 14.7 11.1 8.2 65 3.3 SW 17 24 9 13 1017.8 1017.1 0.0
20/01:30am 14.7 11.4 8.2 65 3.3 WSW 15 19 8 10 1018.2 1017.4 0.0
20/01:00am 14.9 11.1 7.5 61 3.7 SW 17 22 9 12 1018.3 1017.5 0.0
20/12:30am 15.0 11.2 7.5 61 3.7 SW 17 22 9 12 1018.5 1017.7 0.0
20/12:00am 15.1 11.4 8.1 63 3.5 SW 17 22 9 12 1018.6 1017.8 0.0
 
Date/Time
CDT
Temp
°C
App
Temp
°C
Dew
Point
°C
Rel
Hum
%
Delta-T
°C
Wind Press
QNH
hPa
Press
MSL
hPa
Rain since
9am
mm
Dir  Spd
km/h
Gust
km/h
Spd
kts
Gust
kts
19/11:30pm 15.2 12.1 8.7 65 3.3 SW 15 20 8 11 1018.6 1017.8 0.0
19/11:00pm 15.0 12.2 8.5 65 3.3 SSW 13 19 7 10 1018.8 1018.0 0.0
19/10:30pm 15.1 11.9 8.3 64 3.4 SSW 15 20 8 11 1018.8 1018.0 0.0
19/10:00pm 15.5 10.9 8.3 62 3.7 SSW 22 30 12 16 1018.8 1018.0 0.0
19/09:30pm 15.5 10.7 8.7 64 3.5 SSW 24 33 13 18 1018.6 1017.8 0.0
19/09:00pm 15.9 11.7 8.4 61 3.8 S 20 32 11 17 1018.3 1017.5 0.0
19/08:30pm 16.3 11.2 7.8 57 4.3 S 24 32 13 17 1018.1 1017.3 0.0
19/08:00pm 16.5 10.8 8.2 58 4.2 S 28 35 15 19 1017.7 1017.0 0.0
19/07:30pm 17.1 11.4 8.5 57 4.4 S 28 37 15 20 1017.6 1016.9 0.0
19/07:00pm 17.4 11.7 8.5 56 4.6 S 28 39 15 21 1017.3 1016.6 0.0
19/06:30pm 17.8 11.9 8.9 56 4.6 S 30 39 16 21 1017.3 1016.6 0.0
19/06:00pm 18.2 12.1 8.2 52 5.2 S 30 37 16 20 1017.1 1016.4 0.0
19/05:30pm 19.3 14.0 8.6 50 5.6 S 26 37 14 20 1017.2 1016.5 0.0
19/05:00pm 19.9 13.5 8.6 48 6.0 S 32 43 17 23 1017.0 1016.3 0.0
19/04:30pm 19.8 14.1 8.2 47 6.1 S 28 39 15 21 1017.1 1016.4 0.0
19/04:00pm 19.4 13.5 7.5 46 6.1 S 28 39 15 21 1017.2 1016.5 0.0
19/03:30pm 20.3 15.0 7.0 42 6.8 S 24 39 13 21 1017.4 1016.7 0.0
19/03:00pm 20.4 15.2 7.1 42 6.8 SSW 24 35 13 19 1017.6 1016.9 0.0
19/02:30pm 20.0 15.1 6.7 42 6.7 SSW 22 37 12 20 1017.8 1017.1 0.0

Other Formats:

Comma delimited format used in spreadsheet applications
http://www.bom.gov.au/fwo/IDS60801/IDS60801.94662.axf

JavaScript Object Notation format (JSON) in row-major order
http://www.bom.gov.au/fwo/IDS60801/IDS60801.94662.json